Carbondale, IL

12:40 AM CDT on May 28, 2018 (GMT -0500)
Southern Illinois

Weather History for KMDH - August, 2012

Change the Weather History Date:

Monday, August 6, 2012

  Actual Average Record
Temperature  
Mean Temperature 78 °F -  
Max Temperature 91 °F 87 °F 109 °F (1947)
Min Temperature 64 °F 64 °F 48 °F (1957)
Cooling Degree Days 12    
Growing Degree Days 28 (Base 50)    
Moisture  
Dew Point 62 °F    
Average Humidity 68    
Maximum Humidity 97    
Minimum Humidity 29    
Precipitation  
Precipitation 0.01 in - - ()
Sea Level Pressure  
Sea Level Pressure 30.08 in    
Wind  
Wind Speed 1 mph (East)    
Max Wind Speed 7 mph    
Max Gust Speed -    
Visibility 9 miles    
Events      
Averages and records for this station are not official NWS values.
T = Trace of Precipitation, MM = Missing Value Source: NWS Daily Summary

Daily Weather History Graph

Daily Weather History Graph

Search for Another Location

Airport or City:

Astronomy

Aug. 06, 2012 Rise Set
Actual Time 6:05 AM CDT 7:59 PM CDT
Civil Twilight 5:36 AM CDT 8:28 PM CDT
Nautical Twilight 5:01 AM CDT 9:03 PM CDT
Astronomical Twilight 4:24 AM CDT 9:40 PM CDT
Moon 10:15 PM CDT (8/6) 10:47 AM CDT (8/6)
Length of Visible Light 14h 51m
Length of Day
13h 54m
Waning Gibbous, 78% of the Moon is Illuminated
Aug 6
Waning Gibbous
Aug 9
Last Quarter
Aug 17
New
Aug 24
First Quarter
Aug 31
Full

Hourly Weather History & Observations

Time (CDT) Temp. Heat Index Dew Point Humidity Pressure Visibility Wind Dir Wind Speed Gust Speed Precip Events Conditions
12:52 AM 68.0 °F - 66.9 °F 96% 30.11 in 10.0 mi Calm Calm - N/A   Clear
1:52 AM 66.9 °F - 66.0 °F 97% 30.10 in 8.0 mi Calm Calm - 0.01 in   Clear
2:52 AM 66.9 °F - 64.9 °F 93% 30.10 in 6.0 mi Calm Calm - N/A   Clear
3:52 AM 66.0 °F - 64.9 °F 96% 30.11 in 8.0 mi Calm Calm - N/A   Clear
4:52 AM 64.9 °F - 64.0 °F 97% 30.11 in 5.0 mi Calm Calm - N/A   Clear
5:52 AM 64.0 °F - 63.0 °F 96% 30.12 in 10.0 mi Calm Calm - N/A   Clear
6:11 AM 64.4 °F - 62.6 °F 94% 30.13 in 2.0 mi Calm Calm - N/A   Clear
6:19 AM 64.4 °F - 62.6 °F 94% 30.13 in 5.0 mi Calm Calm - N/A   Clear
6:52 AM 64.9 °F - 64.0 °F 97% 30.13 in 10.0 mi Calm Calm - N/A   Clear
7:52 AM 70.0 °F - 64.9 °F 84% 30.14 in 10.0 mi Calm Calm - N/A   Clear
8:52 AM 75.0 °F - 64.9 °F 71% 30.13 in 10.0 mi Calm Calm - N/A   Clear
9:52 AM 81.0 °F 82.5 °F 64.0 °F 56% 30.13 in 10.0 mi Variable 3.5 mph - N/A   Clear
10:52 AM 86.0 °F 85.7 °F 60.1 °F 41% 30.12 in 10.0 mi Calm Calm - N/A   Clear
11:52 AM 88.0 °F 86.9 °F 57.9 °F 36% 30.11 in 10.0 mi NE 6.9 mph - N/A   Clear
12:52 PM 88.0 °F 86.5 °F 55.9 °F 34% 30.10 in 10.0 mi Calm Calm - N/A   Clear
1:52 PM 89.1 °F 87.3 °F 55.9 °F 32% 30.08 in 10.0 mi SSE 5.8 mph - N/A   Clear
2:52 PM 90.0 °F 87.9 °F 55.0 °F 30% 30.06 in 10.0 mi SE 5.8 mph - N/A   Clear
3:52 PM 91.0 °F 88.9 °F 55.0 °F 29% 30.04 in 10.0 mi Calm Calm - N/A   Clear
4:52 PM 90.0 °F 87.9 °F 55.0 °F 30% 30.01 in 10.0 mi ENE 3.5 mph - N/A   Clear
5:52 PM 89.1 °F 87.1 °F 55.0 °F 31% 30.00 in 10.0 mi Calm Calm - N/A   Clear
6:52 PM 88.0 °F 86.7 °F 57.0 °F 35% 30.00 in 10.0 mi Calm Calm - N/A   Clear
7:52 PM 82.9 °F 83.7 °F 62.1 °F 49% 30.00 in 10.0 mi Calm Calm - N/A   Clear
8:52 PM 75.0 °F - 66.9 °F 76% 30.00 in 10.0 mi Calm Calm - N/A   Clear
9:52 PM 71.1 °F - 68.0 °F 90% 30.01 in 10.0 mi Calm Calm - N/A   Clear
10:52 PM 70.0 °F - 66.9 °F 90% 30.00 in 10.0 mi Calm Calm - N/A   Clear
11:52 PM 69.1 °F - 66.0 °F 90% 29.99 in 10.0 mi North - - N/A   Clear